EW0890 Weather Reports


time (UTC)temp
F
wind
direction
speed
knots
gust
knots
rain 1hr
in
rain 24hr
in
rain mn
in
humidity
%
barometer
mb
20260904133105 82 281 2.6 5.2 0.00 0.00 0.00 78 1015.0
20260904133033 82 243 1.7 5.2 0.00 0.00 0.00 78 1015.0
20260904132515 82 274 2.6 4.3 0.00 0.00 0.00 78 1015.0
20260904132015 81 275 1.7 4.3 0.00 0.00 0.00 78 1015.1
20260904131618 81 289 2.6 4.3 0.00 0.00 0.00 78 1015.0
20260904131535 81 268 2.6 4.3 0.00 0.00 0.00 78 1015.0
20260904131014 81 296 1.7 4.3 0.00 0.00 0.00 78 1015.0
20260904130507 81 300 1.7 4.3 0.00 0.00 0.00 79 1014.8
20260904130104 81 255 1.7 3.5 0.00 0.00 0.00 79 1014.7
20260904130023 81 302 1.7 3.5 0.00 0.00 0.00 79 1014.7
20260904125508 80 253 1.7 4.3 0.00 0.00 0.00 79 1014.6
20260904125014 80 250 1.7 4.3 0.00 0.00 0.00 79 1014.5
20260904124600 80 302 1.7 4.3 0.00 0.00 0.00 79 1014.5
20260904124526 80 281 1.7 4.3 0.00 0.00 0.00 80 1014.4
20260904124011 79 316 1.7 4.3 0.00 0.00 0.00 81 1014.4
20260904123514 79 275 1.7 2.6 0.00 0.00 0.00 81 1014.3
20260904123105 79 288 1.7 3.5 0.00 0.00 0.00 81 1014.3
20260904123031 79 251 1.7 3.5 0.00 0.00 0.00 81 1014.2
20260904122516 79 277 1.7 3.5 0.00 0.00 0.00 81 1014.1
20260904122015 78 248 1.7 3.5 0.00 0.00 0.00 81 1014.1
20260904121558 78 281 1.7 3.5 0.00 0.00 0.00 82 1014.2
20260904121533 78 268 1.7 3.5 0.00 0.00 0.00 82 1014.0
20260904121017 77 281 1.7 3.5 0.00 0.00 0.00 83 1013.9
20260904120516 77 256 1.7 3.5 0.00 0.00 0.00 84 1013.9
20260904120104 76 284 1.7 3.5 0.00 0.00 0.00 85 1014.1
20260904120035 76 274 1.7 3.5 0.00 0.00 0.00 85 1013.9
20260904115516 76 310 0.9 1.7 0.00 0.00 0.00 87 1013.8
20260904115010 75 299 0.9 2.6 0.00 0.00 0.00 87 1013.8
20260904114605 75 290 0.9 2.6 0.00 0.00 0.00 87 1014.0
20260904114524 75 264 0.9 2.6 0.00 0.00 0.00 87 1013.8
20260904114014 75 285 0.9 2.6 0.00 0.00 0.00 88 1013.8
20260904113503 75 273 0.9 2.6 0.00 0.00 0.00 88 1013.9
20260904113102 75 284 0.9 2.6 0.00 0.00 0.00 88 1014.0
20260904113004 75 307 0.9 2.6 0.00 0.00 0.00 88 1013.9
20260904112503 75 280 0.9 2.6 0.00 0.00 0.00 88 1013.8
20260904112003 75 262 0.9 2.6 0.00 0.00 0.00 88 1013.8
20260904111600 75 274 0.9 2.6 0.00 0.00 0.00 87 1014.0
20260904111508 75 255 0.9 2.6 0.00 0.00 0.00 87 1013.8
20260904111003 75 281 0.9 2.6 0.00 0.00 0.00 87 1013.9
20260904110503 75 301 0.9 2.6 0.00 0.00 0.00 87 1013.9
20260904110014 75 281 0.9 1.7 0.00 0.00 0.00 87 1013.8
20260904105508 75 290 0.9 1.7 0.00 0.00 0.00 87 1013.8
20260904105008 75 262 0.9 1.7 0.00 0.00 0.00 88 1013.9
20260904104602 75 262 0.9 1.7 0.00 0.00 0.00 88 1014.0
20260904104522 75 283 0.9 1.7 0.00 0.00 0.00 88 1013.9
20260904104014 75 278 0.9 1.7 0.00 0.00 0.00 88 1014.0
20260904103512 75 283 0.0 1.7 0.00 0.00 0.00 88 1014.0
20260904103101 75 286 0.9 2.6 0.00 0.00 0.00 88 1014.1
20260904103027 75 275 0.9 1.7 0.00 0.00 0.00 88 1014.0
20260904102513 75 302 0.9 2.6 0.00 0.00 0.00 88 1014.0
20260904102003 75 278 0.9 2.6 0.00 0.00 0.00 88 1014.1
20260904101610 75 252 0.9 1.7 0.00 0.00 0.00 88 1014.2
20260904101510 75 279 0.9 1.7 0.00 0.00 0.00 88 1014.0
20260904101004 75 293 0.0 1.7 0.00 0.00 0.00 88 1014.0
20260904100504 75 295 0.0 1.7 0.00 0.00 0.00 88 1014.0
20260904100107 75 271 0.0 1.7 0.00 0.00 0.00 87 1014.2
20260904100011 75 290 0.0 1.7 0.00 0.00 0.00 87 1014.1
20260904095504 75 278 0.9 1.7 0.00 0.00 0.00 87 1014.0
20260904095003 75 293 0.9 1.7 0.00 0.00 0.00 87 1014.1
20260904094607 75 283 0.9 1.7 0.00 0.00 0.00 87 1014.2
20260904094516 75 273 0.9 1.7 0.00 0.00 0.00 87 1014.0
20260904094007 75 273 0.9 1.7 0.00 0.00 0.00 86 1014.0
20260904093507 75 266 0.0 1.7 0.00 0.00 0.00 86 1014.1
20260904093118 76 278 0.0 0.9 0.00 0.00 0.00 86 1014.1
20260904093049 76 277 0.0 0.9 0.00 0.00 0.00 86 1014.0
20260904092511 76 290 0.0 1.7 0.00 0.00 0.00 86 1013.9
20260904092011 76 291 0.0 1.7 0.00 0.00 0.00 86 1014.0
20260904091615 76 0 0.0 2.6 0.00 0.00 0.00 86 1014.1
20260904091531 76 293 0.0 2.6 0.00 0.00 0.00 86 1014.0
20260904091012 76 305 0.0 2.6 0.00 0.00 0.00 86 1013.9
20260904090503 76 243 0.0 1.7 0.00 0.00 0.00 86 1013.8
20260904090100 76 259 0.0 1.7 0.00 0.00 0.00 85 1013.9
20260904090007 76 269 0.0 1.7 0.00 0.00 0.00 85 1013.7
20260904085504 76 297 0.0 1.7 0.00 0.00 0.00 85 1013.6
20260904085004 76 270 0.0 2.6 0.00 0.00 0.00 85 1013.6
20260904084557 76 251 0.9 2.6 0.00 0.00 0.00 85 1013.8
20260904084512 76 293 0.9 2.6 0.00 0.00 0.00 85 1013.6
20260904084007 76 235 0.9 2.6 0.00 0.00 0.00 85 1013.6
20260904083507 76 280 0.9 2.6 0.00 0.00 0.00 85 1013.6
20260904083107 76 283 0.9 2.6 0.00 0.00 0.00 85 1013.8
20260904083017 76 242 0.9 2.6 0.00 0.00 0.00 85 1013.6
20260904082508 76 332 0.9 2.6 0.00 0.00 0.00 85 1013.5
20260904082008 76 300 0.9 2.6 0.00 0.00 0.00 85 1013.5
20260904081557 76 221 0.9 2.6 0.00 0.00 0.00 85 1013.7
20260904081524 76 260 0.9 2.6 0.00 0.00 0.00 85 1013.5
20260904081012 76 292 0.9 2.6 0.00 0.00 0.00 85 1013.5
20260904080513 76 275 0.9 2.6 0.00 0.00 0.00 86 1013.6
20260904080027 76 238 0.0 0.9 0.00 0.00 0.00 86 1013.6
20260904075514 76 290 0.0 1.7 0.00 0.00 0.00 86 1013.7
20260904075003 76 226 0.0 1.7 0.00 0.00 0.00 86 1013.6
20260904074559 76 274 0.0 1.7 0.00 0.00 0.00 86 1013.8
20260904074509 76 281 0.0 1.7 0.00 0.00 0.00 86 1013.6
20260904074003 75 298 0.0 0.9 0.00 0.00 0.00 87 1013.7
20260904073507 75 287 0.0 0.0 0.00 0.00 0.00 87 1013.7
20260904073117 75 0 0.0 0.9 0.00 0.00 0.00 88 1013.9
20260904073035 75 255 0.0 0.9 0.00 0.00 0.00 88 1013.8
20260904072506 75 253 0.0 0.9 0.00 0.00 0.00 88 1013.9
20260904072010 75 239 0.0 0.0 0.00 0.00 0.00 88 1013.9
20260904071600 75 0 0.0 0.0 0.00 0.00 0.00 88 1014.1
20260904071522 75 274 0.0 0.0 0.00 0.00 0.00 88 1014.0
20260904071011 75 266 0.0 0.0 0.00 0.00 0.00 88 1013.9
20260904070512 75 268 0.0 0.0 0.00 0.00 0.00 88 1014.2
20260904070028 75 272 0.0 0.0 0.00 0.00 0.00 88 1014.0
20260904065514 75 271 0.0 0.9 0.00 0.00 0.00 89 1014.0
20260904065015 75 270 0.0 0.9 0.00 0.00 0.00 89 1014.1
20260904064608 75 0 0.0 0.9 0.00 0.00 0.00 89 1014.3
20260904064529 75 270 0.0 0.9 0.00 0.00 0.00 89 1014.2
20260904064015 75 255 0.0 0.9 0.00 0.00 0.00 89 1014.1
20260904063504 75 263 0.0 0.9 0.00 0.00 0.00 89 1014.1
20260904063107 75 0 0.0 0.9 0.00 0.00 0.00 89 1014.3
20260904063011 75 214 0.0 0.9 0.00 0.00 0.00 89 1014.2
20260904062504 75 245 0.0 0.9 0.00 0.00 0.00 89 1014.1
20260904062004 75 261 0.0 0.9 0.00 0.00 0.00 89 1014.1
20260904061600 75 0 0.0 0.9 0.00 0.00 0.00 89 1014.2
20260904061518 75 234 0.0 0.9 0.00 0.00 0.00 89 1014.1
20260904061008 75 234 0.0 0.9 0.00 0.00 0.00 89 1014.2
20260904060508 75 288 0.0 0.0 0.00 0.00 0.00 90 1014.2
20260904060127 75 0 0.0 0.0 0.00 0.00 0.00 90 1014.3
20260904060028 75 287 0.0 0.0 0.00 0.00 0.00 90 1014.1
20260904055511 75 270 0.0 0.0 0.00 0.00 0.00 90 1014.1
20260904055012 75 259 0.0 0.0 0.00 0.00 0.00 90 1014.2
20260904054636 75 0 0.0 0.0 0.00 0.00 0.00 90 1014.3
20260904054530 75 259 0.0 0.0 0.00 0.00 0.00 90 1014.1
20260904054015 75 257 0.0 0.0 0.00 0.00 0.00 91 1014.2
20260904053515 75 222 0.0 0.0 0.00 0.00 0.00 90 1014.2
20260904053058 75 0 0.0 0.0 0.00 0.00 0.00 90 1014.3
20260904053032 75 222 0.0 0.0 0.00 0.00 0.00 90 1014.1
20260904052516 75 222 0.0 0.0 0.00 0.00 0.00 91 1014.1
20260904052006 75 197 0.0 0.0 0.00 0.00 0.00 91 1014.2
20260904051601 75 0 0.0 0.0 0.00 0.00 0.00 91 1014.4
20260904051515 75 166 0.0 0.0 0.00 0.00 0.00 91 1014.2
20260904051005 75 96 0.0 0.0 0.00 0.00 0.00 91 1014.3
20260904050507 75 94 0.0 0.0 0.00 0.00 0.00 91 1014.2
20260904050107 75 0 0.0 0.0 0.00 0.00 0.00 91 1014.5
20260904050022 75 94 0.0 0.0 0.00 0.00 0.00 91 1014.4
20260904045509 75 96 0.0 0.0 0.00 0.00 0.00 91 1014.3
20260904045009 75 83 0.0 0.0 0.00 0.00 0.00 91 1014.3
20260904044559 75 0 0.0 0.0 0.00 0.00 0.00 90 1014.5
20260904044526 75 89 0.0 0.0 0.00 0.00 0.00 90 1014.4
20260904044014 75 89 0.0 0.0 0.00 0.00 0.00 90 1014.3
20260904043515 75 89 0.0 0.0 0.00 0.00 0.00 90 1014.2
20260904043105 75 0 0.0 0.0 0.00 0.00 0.00 89 1014.5
20260904043030 75 89 0.0 0.0 0.00 0.00 0.00 89 1014.2
20260904042516 76 88 0.0 0.0 0.00 0.00 0.00 89 1014.3
20260904042014 76 89 0.0 0.0 0.00 0.00 0.00 89 1014.2
20260904041604 76 0 0.0 0.0 0.00 0.00 0.00 88 1014.3
20260904041533 76 88 0.0 0.0 0.00 0.00 0.00 88 1014.1
20260904041003 76 105 0.0 0.9 0.00 0.00 0.00 88 1014.1
20260904040506 77 105 0.0 0.9 0.00 0.00 0.00 88 1014.2
20260904040018 77 250 0.0 0.9 0.00 0.00 0.00 87 1014.1
20260904035510 77 245 0.0 0.0 0.00 0.00 0.00 87 1014.1
20260904035008 77 244 0.0 0.9 0.00 0.00 0.00 87 1014.2
20260904034601 77 0 0.0 0.9 0.00 0.00 0.00 87 1014.2
20260904034526 77 244 0.0 0.9 0.00 0.00 0.00 87 1014.2
20260904034012 77 241 0.0 0.0 0.00 0.00 0.00 87 1014.1
20260904033511 77 241 0.0 0.9 0.00 0.00 0.00 88 1014.0
20260904033102 77 0 0.0 0.9 0.00 0.00 0.00 88 1014.1
20260904033036 77 241 0.0 0.9 0.00 0.00 0.00 88 1014.1
20260904032513 77 240 0.0 0.0 0.00 0.00 0.00 88 1013.9
20260904032014 77 240 0.0 0.0 0.00 0.00 0.00 88 1013.8
20260904031606 77 0 0.0 0.0 0.00 0.00 0.00 87 1014.1
20260904031533 77 240 0.0 0.0 0.00 0.00 0.00 87 1013.9
20260904031016 77 240 0.0 0.0 0.00 0.00 0.00 87 1014.0
20260904030520 77 240 0.0 0.0 0.00 0.00 0.00 87 1013.9
20260904030055 77 0 0.0 0.0 0.00 0.00 0.00 87 1014.0
20260904030034 77 240 0.0 0.0 0.00 0.00 0.00 87 1013.8
20260904025507 78 153 0.0 0.0 0.00 0.00 0.00 87 1013.8
20260904025007 78 149 0.0 0.0 0.00 0.00 0.00 87 1013.9
20260904024602 78 0 0.0 0.0 0.00 0.00 0.00 87 1014.0
20260904024523 78 149 0.0 0.0 0.00 0.00 0.00 87 1013.8
20260904024008 78 129 0.0 0.0 0.00 0.00 0.00 87 1013.7
20260904023513 78 129 0.0 0.9 0.00 0.00 0.00 87 1013.8
20260904023107 79 0 0.0 0.9 0.00 0.00 0.00 87 1013.9
20260904023025 79 129 0.0 0.9 0.00 0.00 0.00 87 1013.7
20260904022510 79 173 0.0 0.9 0.00 0.00 0.00 87 1013.7
20260904022014 79 167 0.0 0.9 0.00 0.00 0.00 87 1013.6
20260904021604 79 0 0.0 0.9 0.00 0.00 0.00 87 1013.8
20260904021532 79 143 0.0 0.9 0.00 0.00 0.00 87 1013.6
20260904021003 79 136 0.0 0.9 0.00 0.00 0.00 86 1013.7
20260904020504 80 135 0.0 0.0 0.00 0.00 0.00 86 1013.6
20260904020106 80 0 0.0 0.0 0.00 0.00 0.00 86 1013.8
20260904020009 80 158 0.0 0.0 0.00 0.00 0.00 86 1013.5
20260904015503 80 91 0.0 0.9 0.00 0.00 0.00 86 1013.5
20260904015006 80 133 0.0 0.9 0.00 0.00 0.00 86 1013.6
20260904014622 80 0 0.0 0.0 0.00 0.00 0.00 86 1013.6
20260904014512 80 114 0.0 0.0 0.00 0.00 0.00 86 1013.5
20260904014006 80 108 0.0 0.0 0.00 0.00 0.00 86 1013.3
20260904013509 80 101 0.0 0.9 0.00 0.00 0.00 86 1013.2
20260904013122 80 0 0.0 0.9 0.00 0.00 0.00 87 1013.2
20260904013021 80 101 0.0 0.9 0.00 0.00 0.00 87 1013.2
20260904012511 81 134 0.0 0.0 0.00 0.00 0.00 86 1013.3
20260904012010 81 134 0.0 0.0 0.00 0.00 0.00 86 1013.1
20260904011559 81 0 0.0 0.0 0.00 0.00 0.00 85 1013.2
20260904011524 81 134 0.0 0.0 0.00 0.00 0.00 85 1013.0
20260904011015 82 134 0.0 0.0 0.00 0.00 0.00 84 1013.0
20260904010514 82 134 0.0 0.0 0.00 0.00 0.00 83 1013.0
20260904010116 83 0 0.0 0.0 0.00 0.00 0.00 83 1013.0
20260904010032 83 134 0.0 0.0 0.00 0.00 0.00 82 1013.0
20260904005504 83 124 0.0 0.0 0.00 0.00 0.00 82 1013.0
20260904005005 84 124 0.0 0.0 0.00 0.00 0.00 81 1012.9
20260904004616 84 0 0.0 0.0 0.00 0.00 0.00 80 1012.9
20260904004508 84 124 0.0 0.0 0.00 0.00 0.00 80 1013.0
20260904004006 85 124 0.0 0.0 0.00 0.00 0.00 78 1012.9
20260904003506 86 124 0.0 0.0 0.00 0.00 0.00 77 1012.9
20260904003125 87 0 0.0 0.0 0.00 0.00 0.00 76 1013.0
20260904003015 87 99 0.0 0.0 0.00 0.00 0.00 76 1012.9
20260904002508 88 265 0.0 0.0 0.00 0.00 0.00 75 1012.8
20260904002010 89 265 0.0 0.0 0.00 0.00 0.00 73 1012.9
20260904001558 90 0 0.0 0.0 0.00 0.00 0.00 71 1013.0
20260904001523 91 265 0.0 0.0 0.00 0.00 0.00 70 1012.9
20260904001011 92 268 0.0 0.0 0.00 0.00 0.00 70 1012.9
20260904000518 93 268 0.0 0.0 0.00 0.00 0.00 68 1012.9
20260904000051 95 0 0.0 0.0 0.00 0.00 0.00 66 1013.1
20260904000029 95 268 0.0 0.0 0.00 0.00 0.00 66 1013.0
20260903235517 96 268 0.0 0.0 0.00 0.00 0.00 64 1013.1
20260903235012 96 268 0.0 0.0 0.00 0.00 0.00 63 1013.0
20260903234601 97 0 0.0 0.0 0.00 0.00 0.00 62 1013.2
20260903234532 97 268 0.0 0.0 0.00 0.00 0.00 62 1013.0
20260903234004 97 268 0.0 0.0 0.00 0.00 0.00 61 1013.1
20260903233509 97 268 0.0 0.0 0.00 0.00 0.00 61 1013.2
20260903233103 97 0 0.0 0.0 0.00 0.00 0.00 61 1013.3
20260903233012 97 268 0.0 0.0 0.00 0.00 0.00 61 1013.3
20260903232509 97 268 0.0 0.0 0.00 0.00 0.00 60 1013.4
20260903232006 98 268 0.0 0.0 0.00 0.00 0.00 59 1013.4
20260903231601 97 0 0.0 0.0 0.00 0.00 0.00 60 1013.4
20260903231518 97 268 0.0 0.0 0.00 0.00 0.00 60 1013.2
20260903231010 97 268 0.0 0.0 0.00 0.00 0.00 61 1013.1
20260903230509 96 268 0.0 0.0 0.00 0.00 0.00 61 1013.2
20260903230106 95 0 0.0 0.0 0.00 0.00 0.00 62 1013.3
20260903230045 95 268 0.0 0.0 0.00 0.00 0.00 62 1013.3
20260903225515 94 268 0.0 0.0 0.00 0.00 0.00 62 1013.3
20260903225015 94 268 0.0 0.0 0.00 0.00 0.00 61 1013.3
20260903224600 94 0 0.0 0.0 0.00 0.00 0.00 61 1013.4
20260903224530 94 270 0.0 0.0 0.00 0.00 0.00 61 1013.3
20260903224018 94 260 0.0 0.9 0.00 0.00 0.00 60 1013.4
20260903223514 94 280 0.0 0.9 0.00 0.00 0.00 61 1013.2
20260903223114 93 0 0.0 2.6 0.00 0.00 0.00 61 1013.3
20260903223033 93 263 0.0 2.6 0.00 0.00 0.00 61 1013.3
20260903222505 93 274 0.0 2.6 0.00 0.00 0.00 62 1013.3
20260903222007 93 271 0.9 2.6 0.00 0.00 0.00 61 1013.3
20260903221607 93 288 0.9 4.3 0.00 0.00 0.00 60 1013.3
20260903221515 93 262 0.9 4.3 0.00 0.00 0.00 60 1013.3
20260903221012 93 291 1.7 4.3 0.00 0.00 0.00 60 1013.3
20260903220510 94 251 0.9 3.5 0.00 0.00 0.00 61 1013.2
20260903220024 94 245 1.7 2.6 0.00 0.00 0.00 62 1013.2
20260903215512 94 261 0.9 2.6 0.00 0.00 0.00 61 1013.1
20260903215010 94 306 0.0 2.6 0.00 0.00 0.00 61 1013.2
20260903214559 94 276 0.0 2.6 0.00 0.00 0.00 60 1013.4
20260903214537 94 274 0.0 2.6 0.00 0.00 0.00 60 1013.2
20260903214013 94 283 0.9 2.6 0.00 0.00 0.00 60 1013.3
20260903213517 94 280 0.9 2.6 0.00 0.00 0.00 60 1013.2
20260903213106 94 283 0.9 2.6 0.00 0.00 0.00 61 1013.3
20260903213034 94 263 0.9 2.6 0.00 0.00 0.00 61 1013.1
20260903212516 94 212 0.9 1.7 0.00 0.00 0.00 63 1013.1
20260903212017 94 266 0.9 4.3 0.00 0.00 0.00 62 1013.2
20260903211610 94 274 1.7 4.3 0.00 0.00 0.00 63 1013.5
20260903211533 94 257 1.7 4.3 0.00 0.00 0.00 61 1013.3
20260903211008 94 245 0.9 3.5 0.00 0.00 0.00 63 1013.3
20260903210505 94 250 0.9 3.5 0.00 0.00 0.00 62 1013.3
20260903210059 94 249 0.9 3.5 0.00 0.00 0.00 61 1013.5
20260903210016 94 278 0.9 3.5 0.00 0.00 0.00 62 1013.4
20260903205508 94 294 1.7 3.5 0.00 0.00 0.00 61 1013.5
20260903205009 94 186 1.7 4.3 0.00 0.00 0.00 61 1013.5
20260903204600 94 274 1.7 4.3 0.00 0.00 0.00 62 1013.6
20260903204527 93 206 0.9 4.3 0.00 0.00 0.00 61 1013.5
20260903204012 94 283 2.6 4.3 0.00 0.00 0.00 61 1013.5
20260903203516 94 248 2.6 4.3 0.00 0.00 0.00 61 1013.5
20260903203103 94 252 1.7 3.5 0.00 0.00 0.00 63 1013.7
20260903203029 94 308 1.7 3.5 0.00 0.00 0.00 63 1013.6
20260903202513 94 262 1.7 3.5 0.00 0.00 0.00 62 1013.7
20260903202015 94 5 0.9 2.6 0.00 0.00 0.00 64 1013.7
20260903201606 94 280 0.9 4.3 0.00 0.00 0.00 64 1013.7
20260903201535 94 271 1.7 4.3 0.00 0.00 0.00 64 1013.6
20260903201016 94 276 0.9 5.2 0.00 0.00 0.00 62 1013.6
20260903200514 93 272 2.6 5.2 0.00 0.00 0.00 59 1013.6
20260903200109 93 293 1.7 4.3 0.00 0.00 0.00 60 1013.7
20260903200040 93 290 1.7 4.3 0.00 0.00 0.00 60 1013.6
20260903195508 94 256 1.7 5.2 0.00 0.00 0.00 62 1013.7
20260903195006 94 306 1.7 5.2 0.00 0.00 0.00 62 1013.7
20260903194603 94 285 1.7 4.3 0.00 0.00 0.00 62 1013.9
20260903194519 94 283 0.9 4.3 0.00 0.00 0.00 64 1013.7
20260903194009 94 283 1.7 4.3 0.00 0.00 0.00 62 1013.8
20260903193511 93 263 1.7 4.3 0.00 0.00 0.00 61 1013.9
20260903193108 93 282 1.7 4.3 0.00 0.00 0.00 62 1014.2
20260903193028 93 281 1.7 4.3 0.00 0.00 0.00 61 1013.9
20260903192515 94 257 1.7 4.3 0.00 0.00 0.00 64 1013.9
20260903192016 94 283 0.9 4.3 0.00 0.00 0.00 63 1014.1
20260903191607 93 263 2.6 4.3 0.00 0.00 0.00 63 1014.2
20260903191529 93 298 1.7 4.3 0.00 0.00 0.00 63 1014.2
20260903191018 93 290 1.7 4.3 0.00 0.00 0.00 62 1014.2
20260903190518 94 214 1.7 3.5 0.00 0.00 0.00 64 1014.1
20260903190106 94 288 1.7 3.5 0.00 0.00 0.00 65 1014.3
20260903190031 94 284 1.7 3.5 0.00 0.00 0.00 64 1014.2
20260903185515 93 283 0.9 4.3 0.00 0.00 0.00 66 1014.2
20260903185018 93 280 1.7 6.1 0.00 0.00 0.00 65 1014.2
20260903184604 93 285 2.6 6.1 0.00 0.00 0.00 63 1014.3
20260903184532 93 309 2.6 6.1 0.00 0.00 0.00 63 1014.3
20260903184007 93 295 1.7 5.2 0.00 0.00 0.00 63 1014.3
20260903183510 93 280 2.6 5.2 0.00 0.00 0.00 64 1014.4
20260903183107 93 244 1.7 6.1 0.00 0.00 0.00 64 1014.5
20260903183022 93 286 1.7 6.1 0.00 0.00 0.00 64 1014.5
20260903182510 92 264 1.7 6.1 0.00 0.00 0.00 67 1014.4
20260903182011 92 296 2.6 6.1 0.00 0.00 0.00 65 1014.5
20260903181558 92 280 1.7 6.1 0.00 0.00 0.00 65 1014.6
20260903181527 92 241 2.6 6.1 0.00 0.00 0.00 65 1014.5
20260903181016 92 295 2.6 6.1 0.00 0.00 0.00 65 1014.6
20260903180513 92 250 4.3 6.1 0.00 0.00 0.00 62 1014.6
20260903180107 92 292 2.6 6.1 0.00 0.00 0.00 64 1014.9
20260903180049 92 275 2.6 5.2 0.00 0.00 0.00 65 1014.7
20260903175513 92 281 1.7 7.0 0.00 0.00 0.00 67 1014.7
20260903175017 91 307 3.5 7.0 0.00 0.00 0.00 63 1014.8
20260903174608 91 293 3.5 7.0 0.00 0.00 0.00 66 1015.1
20260903174532 91 281 3.5 7.0 0.00 0.00 0.00 65 1014.8
20260903174014 91 242 3.5 7.0 0.00 0.00 0.00 65 1014.9
20260903174007 91 257 3.5 7.0 0.00 0.00 0.00 65 1014.9
20260903173508 91 287 2.6 7.0 0.00 0.00 0.00 66 1014.8
20260903173107 91 271 3.5 7.0 0.00 0.00 0.00 64 1015.0
20260903173015 91 290 3.5 7.0 0.00 0.00 0.00 65 1014.7
20260903172507 91 238 3.5 7.0 0.00 0.00 0.00 66 1014.8
20260903172008 91 282 2.6 7.0 0.00 0.00 0.00 68 1014.8
20260903171604 90 290 3.5 7.0 0.00 0.00 0.00 66 1015.0
20260903171525 90 278 3.5 7.0 0.00 0.00 0.00 66 1014.7
20260903171011 90 307 2.6 7.0 0.00 0.00 0.00 67 1014.8
20260903170506 90 280 3.5 7.0 0.00 0.00 0.00 67 1014.9
20260903170108 90 292 3.5 6.1 0.00 0.00 0.00 67 1015.1
20260903170006 90 284 3.5 6.1 0.00 0.00 0.00 68 1014.9
20260903165504 90 274 3.5 6.1 0.00 0.00 0.00 68 1015.0
20260903165006 90 300 3.5 6.1 0.00 0.00 0.00 68 1014.9
20260903164609 89 294 3.5 6.1 0.00 0.00 0.00 68 1015.2
20260903164507 89 295 3.5 6.1 0.00 0.00 0.00 69 1015.0
20260903164002 89 260 4.3 5.2 0.00 0.00 0.00 69 1015.1
20260903163503 89 271 3.5 7.0 0.00 0.00 0.00 69 1015.1
20260903163101 89 318 3.5 7.0 0.00 0.00 0.00 71 1015.3
20260903163014 89 203 3.5 7.0 0.00 0.00 0.00 68 1015.1
20260903162507 89 268 3.5 6.1 0.00 0.00 0.00 70 1015.1
20260903162007 89 282 3.5 7.0 0.00 0.00 0.00 70 1015.1
20260903161605 89 265 3.5 7.0 0.00 0.00 0.00 68 1015.3
20260903161516 89 288 3.5 7.0 0.00 0.00 0.00 69 1015.1
20260903161009 88 234 2.6 7.0 0.00 0.00 0.00 71 1015.2
20260903160512 88 289 2.6 7.0 0.00 0.00 0.00 70 1015.2
20260903160110 88 283 4.3 7.0 0.00 0.00 0.00 70 1015.3
20260903160030 88 256 4.3 7.0 0.00 0.00 0.00 69 1015.3
20260903155504 88 279 2.6 6.1 0.00 0.00 0.00 70 1015.2
20260903155003 88 296 2.6 5.2 0.00 0.00 0.00 71 1015.2
20260903154601 87 233 3.5 6.1 0.00 0.00 0.00 71 1015.3
20260903154507 87 249 3.5 6.1 0.00 0.00 0.00 70 1015.1
20260903154006 87 252 2.6 6.1 0.00 0.00 0.00 70 1015.2
20260903153507 87 252 2.6 6.1 0.00 0.00 0.00 71 1015.1
20260903153110 87 297 3.5 5.2 0.00 0.00 0.00 71 1015.2
20260903153008 87 266 3.5 5.2 0.00 0.00 0.00 71 1015.2
20260903152506 87 267 2.6 5.2 0.00 0.00 0.00 72 1015.3
20260903152011 87 289 3.5 7.8 0.00 0.00 0.00 72 1015.3
20260903151558 86 274 4.3 7.8 0.00 0.00 0.00 71 1015.2
20260903151514 86 257 4.3 7.8 0.00 0.00 0.00 71 1015.2
20260903151006 86 283 2.6 6.1 0.00 0.00 0.00 72 1015.1
20260903150508 86 278 2.6 5.2 0.00 0.00 0.00 73 1015.1
20260903150022 86 251 2.6 5.2 0.00 0.00 0.00 72 1015.1
20260903145511 86 283 1.7 6.1 0.00 0.00 0.00 74 1015.1
20260903145011 85 289 4.3 6.1 0.00 0.00 0.00 72 1015.0
20260903144602 85 307 4.3 6.1 0.00 0.00 0.00 73 1014.9
20260903144527 85 250 3.5 6.1 0.00 0.00 0.00 72 1015.0
20260903144004 85 293 3.5 6.1 0.00 0.00 0.00 73 1014.8
20260903143504 85 260 2.6 5.2 0.00 0.00 0.00 74 1014.8
20260903143111 85 219 2.6 7.0 0.00 0.00 0.00 74 1014.7
20260903143006 85 282 2.6 7.0 0.00 0.00 0.00 75 1014.8
20260903142506 84 272 2.6 7.0 0.00 0.00 0.00 74 1014.7
20260903142002 84 285 2.6 6.1 0.00 0.00 0.00 74 1014.8
20260903141608 84 283 2.6 6.1 0.00 0.00 0.00 74 1014.7
20260903141515 84 329 2.6 6.1 0.00 0.00 0.00 74 1014.7
20260903141007 84 248 2.6 5.2 0.00 0.00 0.00 75 1014.8
20260903140508 83 247 1.7 7.8 0.00 0.00 0.00 75 1014.9
20260903140022 83 252 1.7 7.8 0.00 0.00 0.00 75 1014.9
20260903135507 83 302 2.6 6.1 0.00 0.00 0.00 76 1014.9
20260903135009 83 295 1.7 5.2 0.00 0.00 0.00 76 1014.8
20260903134610 82 266 1.7 4.3 0.00 0.00 0.00 77 1014.7
20260903134526 82 160 1.7 4.3 0.00 0.00 0.00 77 1014.9
20260903134011 82 227 1.7 4.3 0.00 0.00 0.00 77 1014.9
20260903133518 82 285 1.7 4.3 0.00 0.00 0.00 78 1015.0